Kokomo, IN

3:38 AM EST on February 25, 2017 (GMT -0500)
Kokomo Municipal

Weather History for KOKK - November, 2013

Change the Weather History Date:

Saturday, November 9, 2013

  Actual Average (KGUS) Record (KGUS)
Temperature  
Mean Temperature 51 °F -  
Max Temperature 60 °F 49 °F 71 °F (1999)
Min Temperature 42 °F 34 °F 21 °F (2003)
Degree Days  
Heating Degree Days 14    
Growing Degree Days 1 (Base 50)    
Moisture  
Dew Point 34 °F    
Average Humidity 54    
Maximum Humidity 71    
Minimum Humidity 45    
Precipitation  
Precipitation 0.00 in - - ()
Sea Level Pressure  
Sea Level Pressure 30.01 in    
Wind  
Wind Speed 17 mph (WSW)    
Max Wind Speed 28 mph    
Max Gust Speed 37 mph    
Visibility 10 miles    
Events      
Averages and records for this station are not official NWS values.
T = Trace of Precipitation, MM = Missing Value Source: NWS Daily Summary

Daily Weather History Graph

Daily Weather History Graph

Search for Another Location

Airport or City:

Trip Planner

Search our weather history database for the weather conditions in past years. The results will help you decide how hot, cold, wet, or windy it might be!

Date:

Astronomy

Nov. 09, 2013 Rise Set
Actual Time 6:23 AM CST 4:31 PM CST
Civil Twilight 5:55 AM CST 5:00 PM CST
Nautical Twilight 5:22 AM CST 5:33 PM CST
Astronomical Twilight 4:50 AM CST 6:05 PM CST
Moon 12:00 PM CST (11/9) 11:01 PM CST (11/9)
Length of Visible Light 11h 05m
Length of Day
10h 07m
Waxing Crescent, 44% of the Moon is Illuminated
Nov 9
Waxing Crescent
Nov 9
First Quarter
Nov 17
Full
Nov 25
Last Quarter
Dec 2
New

Hourly Weather History & Observations

Time (CST) Temp. Windchill Dew Point Humidity Pressure Visibility Wind Dir Wind Speed Gust Speed Precip Events Conditions
12:15 AM 42.8 °F 35.8 °F 28.4 °F 57% 30.10 in 10.0 mi South 13.8 mph - N/A   Mostly Cloudy
12:35 AM 44.6 °F 38.1 °F 28.4 °F 53% 30.09 in 10.0 mi South 13.8 mph - N/A   Mostly Cloudy
12:55 AM 44.6 °F 36.9 °F 26.6 °F 49% 30.07 in 10.0 mi South 18.4 mph 24.2 mph N/A   Partly Cloudy
1:15 AM 44.6 °F 37.2 °F 26.6 °F 49% 30.07 in 10.0 mi SSW 17.3 mph - N/A   Mostly Cloudy
1:35 AM 44.6 °F 38.4 °F 26.6 °F 49% 30.08 in 10.0 mi SSW 12.7 mph 24.2 mph N/A   Overcast
1:55 AM 44.6 °F 37.2 °F 26.6 °F 49% 30.08 in 10.0 mi SSW 17.3 mph 23.0 mph N/A   Overcast
2:15 AM 44.6 °F 37.8 °F 26.6 °F 49% 30.06 in 10.0 mi SSW 15.0 mph - N/A   Overcast
2:35 AM 44.6 °F 37.8 °F 26.6 °F 49% 30.06 in 10.0 mi SSW 15.0 mph 21.9 mph N/A   Mostly Cloudy
2:55 AM 44.6 °F 36.9 °F 26.6 °F 49% 30.06 in 10.0 mi SSW 18.4 mph - N/A   Mostly Cloudy
3:15 AM 44.6 °F 37.4 °F 26.6 °F 49% 30.04 in 10.0 mi SSW 16.1 mph 23.0 mph N/A   Mostly Cloudy
3:35 AM 42.8 °F 35.4 °F 26.6 °F 53% 30.04 in 10.0 mi SSW 15.0 mph - N/A   Clear
3:55 AM 42.8 °F 35.8 °F 26.6 °F 53% 30.04 in 10.0 mi SSW 13.8 mph 19.6 mph N/A   Clear
4:15 AM 42.8 °F 35.4 °F 26.6 °F 53% 30.03 in 10.0 mi SSW 15.0 mph - N/A   Clear
4:35 AM 42.8 °F 35.1 °F 28.4 °F 57% 30.02 in 10.0 mi SSW 16.1 mph 23.0 mph N/A   Clear
4:55 AM 44.6 °F 36.6 °F 28.4 °F 53% 30.02 in 10.0 mi SSW 19.6 mph 28.8 mph N/A   Clear
5:15 AM 44.6 °F 36.6 °F 26.6 °F 49% 30.02 in 10.0 mi SSW 19.6 mph 25.3 mph N/A   Clear
5:35 AM 44.6 °F 37.2 °F 28.4 °F 53% 30.02 in 10.0 mi SSW 17.3 mph 26.5 mph N/A   Clear
5:55 AM 42.8 °F 34.5 °F 28.4 °F 57% 30.01 in 10.0 mi SSW 18.4 mph 23.0 mph N/A   Clear
6:15 AM 44.6 °F 36.4 °F 28.4 °F 53% 30.01 in 10.0 mi SSW 20.7 mph 26.5 mph N/A   Clear
6:35 AM 42.8 °F 35.1 °F 28.4 °F 57% 30.01 in 10.0 mi SSW 16.1 mph 25.3 mph N/A   Clear
6:55 AM 42.8 °F 34.5 °F 28.4 °F 57% 30.01 in 10.0 mi SSW 18.4 mph 25.3 mph N/A   Clear
7:15 AM 44.6 °F 36.9 °F 30.2 °F 57% 30.01 in 10.0 mi SSW 18.4 mph 25.3 mph N/A   Clear
7:35 AM 44.6 °F 36.9 °F 30.2 °F 57% 30.01 in 10.0 mi SSW 18.4 mph 24.2 mph N/A   Clear
7:55 AM 46.4 °F 39.5 °F 32.0 °F 57% 30.01 in 10.0 mi SSW 17.3 mph 26.5 mph N/A   Clear
8:15 AM 46.4 °F 39.2 °F 32.0 °F 57% 30.01 in 10.0 mi SW 18.4 mph 24.2 mph N/A   Clear
8:35 AM 48.2 °F - 33.8 °F 58% 30.01 in 10.0 mi SW 18.4 mph 23.0 mph N/A   Clear
8:55 AM 50.0 °F - 33.8 °F 54% 30.00 in 10.0 mi WSW 27.6 mph 31.1 mph N/A   Clear
9:15 AM 51.8 °F - 35.6 °F 54% 30.00 in 10.0 mi WSW 21.9 mph 36.8 mph N/A   Clear
9:35 AM 53.6 °F - 35.6 °F 51% 29.99 in 10.0 mi WSW 25.3 mph 32.2 mph N/A   Clear
9:55 AM 53.6 °F - 37.4 °F 54% 29.99 in 10.0 mi WSW 25.3 mph 31.1 mph N/A   Clear
10:15 AM 53.6 °F - 37.4 °F 54% 29.98 in 10.0 mi WSW 21.9 mph 32.2 mph N/A   Clear
10:35 AM 55.4 °F - 37.4 °F 51% 29.99 in 10.0 mi WSW 24.2 mph 31.1 mph N/A   Clear
10:55 AM 55.4 °F - 37.4 °F 51% 29.98 in 10.0 mi WSW 24.2 mph 32.2 mph N/A   Clear
11:15 AM 57.2 °F - 39.2 °F 51% 29.98 in 10.0 mi WSW 23.0 mph 27.6 mph N/A   Clear
11:35 AM 57.2 °F - 39.2 °F 51% 29.96 in 10.0 mi SW 24.2 mph 29.9 mph N/A   Clear
11:55 AM 57.2 °F - 39.2 °F 51% 29.96 in 10.0 mi WSW 23.0 mph 27.6 mph N/A   Clear
12:15 PM 59.0 °F - 39.2 °F 48% 29.95 in 10.0 mi WSW 24.2 mph 32.2 mph N/A   Clear
12:35 PM 59.0 °F - 39.2 °F 48% 29.95 in 10.0 mi WSW 24.2 mph 32.2 mph N/A   Clear
12:55 PM 60.8 °F - 39.2 °F 45% 29.95 in 10.0 mi WSW 23.0 mph 32.2 mph N/A   Clear
1:15 PM 60.8 °F - 39.2 °F 45% 29.95 in 10.0 mi WSW 26.5 mph - N/A   Clear
1:35 PM 60.8 °F - 39.2 °F 45% 29.94 in 10.0 mi West 26.5 mph 31.1 mph N/A   Clear
1:55 PM 60.8 °F - 39.2 °F 45% 29.95 in 10.0 mi West 25.3 mph 29.9 mph N/A   Clear
2:15 PM 60.8 °F - 39.2 °F 45% 29.95 in 10.0 mi West 27.6 mph 32.2 mph N/A   Clear
2:35 PM 60.8 °F - 39.2 °F 45% 29.94 in 10.0 mi West 21.9 mph 27.6 mph N/A   Clear
2:55 PM 60.8 °F - 39.2 °F 45% 29.95 in 10.0 mi West 20.7 mph 27.6 mph N/A   Clear
3:15 PM 60.8 °F - 39.2 °F 45% 29.95 in 10.0 mi West 20.7 mph 29.9 mph N/A   Clear
3:35 PM 59.0 °F - 37.4 °F 45% 29.95 in 10.0 mi West 19.6 mph 31.1 mph N/A   Clear
3:55 PM 59.0 °F - 39.2 °F 48% 29.96 in 10.0 mi West 16.1 mph 31.1 mph N/A   Clear
4:15 PM 57.2 °F - 39.2 °F 51% 29.96 in 10.0 mi West 19.6 mph 26.5 mph N/A   Partly Cloudy
4:35 PM 57.2 °F - 39.2 °F 51% 29.97 in 10.0 mi WSW 19.6 mph 25.3 mph N/A   Partly Cloudy
4:55 PM 55.4 °F - 39.2 °F 54% 29.97 in 10.0 mi West 18.4 mph 23.0 mph N/A   Clear
5:15 PM 55.4 °F - 37.4 °F 51% 29.98 in 10.0 mi West 15.0 mph - N/A   Clear
5:35 PM 55.4 °F - 37.4 °F 51% 29.99 in 10.0 mi West 13.8 mph - N/A   Clear
5:55 PM 53.6 °F - 37.4 °F 54% 30.00 in 10.0 mi West 15.0 mph - N/A   Clear
6:15 PM 53.6 °F - 37.4 °F 54% 30.01 in 10.0 mi West 15.0 mph 20.7 mph N/A   Clear
6:35 PM 53.6 °F - 35.6 °F 51% 30.02 in 10.0 mi West 16.1 mph - N/A   Clear
6:55 PM 51.8 °F - 35.6 °F 54% 30.02 in 10.0 mi West 11.5 mph - N/A   Clear
7:15 PM 51.8 °F - 35.6 °F 54% 30.02 in 10.0 mi West 13.8 mph - N/A   Clear
7:35 PM 51.8 °F - 35.6 °F 54% 30.03 in 10.0 mi West 13.8 mph 19.6 mph N/A   Clear
7:55 PM 51.8 °F - 35.6 °F 54% 30.03 in 10.0 mi West 15.0 mph 19.6 mph N/A   Clear
8:15 PM 50.0 °F - 35.6 °F 58% 30.04 in 10.0 mi West 16.1 mph 20.7 mph N/A   Clear
8:35 PM 50.0 °F - 35.6 °F 58% 30.04 in 10.0 mi West 16.1 mph 19.6 mph N/A   Clear
8:55 PM 48.2 °F - 35.6 °F 62% 30.04 in 10.0 mi West 15.0 mph - N/A   Clear
9:15 PM 48.2 °F - 35.6 °F 62% 30.05 in 10.0 mi West 13.8 mph - N/A   Clear
9:35 PM 46.4 °F 40.4 °F 35.6 °F 66% 30.06 in 10.0 mi West 13.8 mph - N/A   Clear
9:55 PM 46.4 °F 40.4 °F 35.6 °F 66% 30.06 in 10.0 mi West 13.8 mph - N/A   Clear
10:15 PM 46.4 °F 40.7 °F 35.6 °F 66% 30.06 in 10.0 mi WNW 12.7 mph - N/A   Clear
10:35 PM 44.6 °F 38.4 °F 35.6 °F 71% 30.07 in 10.0 mi West 12.7 mph - N/A   Clear
10:55 PM 44.6 °F 38.4 °F 33.8 °F 66% 30.07 in 10.0 mi West 12.7 mph - N/A   Clear
11:15 PM 44.6 °F 39.2 °F 35.6 °F 71% 30.07 in 10.0 mi West 10.4 mph - N/A   Clear
11:35 PM 44.6 °F 38.8 °F 35.6 °F 71% 30.07 in 10.0 mi West 11.5 mph - N/A   Clear
11:55 PM 44.6 °F 38.4 °F 35.6 °F 71% 30.08 in 10.0 mi West 12.7 mph - N/A   Clear